Location: Moscow
(55.7500°N, 37.5830°E)
Time: 19:49:28
(UTC+03:00)

N. Korean satellite - Pass Details

Date: 03 March 2021
Orbit: 452 x 499 km, 97.2° (Epoch: 20 April)

Event Time Altitude Azimuth Distance (km) Brightness Sun altitude
Rises 05:12:41 0° 24° (NNE) 2,518 10.8 -18.0°
Reaches altitude 10° 05:15:04 10° 40° (NE) 1,645 10.0 -17.7°
Maximum altitude 05:17:53 22° 93° (E) 1,092 9.2 -17.3°
Drops below altitude 10° 05:20:42 10° 145° (SE) 1,655 9.5 -16.9°
Sets 05:23:07 0° 162° (SSE) 2,539 10.3 -16.6°
